www.pogodaiklimat.ru

Погода и климат >> Архив погоды >> Украина >> Одесса


АРХИВ ПОГОДЫ в Одессе

Время (UTC), дата Ветер
(напр.,м/с)
 
Видим.   Явления Облачность Т
(С)
Тd
(С)
f
(%)
Тe
(С)
Тes
(С)
Комфортность P
(гПа)
Po
(гПа)
Тmin
(С)
Tmax
(С)
R
(мм)
R24
(мм)
S
(см)
03 15.10 З 3 9000 м в посл. час ливневой дождь 10/10 300 м
[Sc]
+10.4 +9.2 92 +8 +8 по сезону 1021.7 1016.6
06 15.10 З 3 7000 м дымка {ливн. осадки} 10/10 300 м
[Sc]
+12.5 +11.2 92 +11 +11 по сезону 1021.4 1016.3 +9.4 0.3
09 15.10 З 2 14 км {ливн. осадки} 10/8 570 м
[Sc Ac trans]
+16.4 +12.6 78 +17 +17 тепло 1021.5 1016.5
12 15.10 З 2 21 км слабый ливневой дождь 10/8 600 м
[Cb calv Ac trans]
+18.1 +13.4 74 +19 +19 тепло 1020.2 1015.2
15 15.10 СЗ 1 24 км в посл. час ливневой дождь 10/6 900 м
[Cb calv Ac trans]
+17.9 +13.4 75 +19 +19 тепло 1019.5 1014.5
18 15.10 СЗ 3 35 км {ливн. осадки} 3/3 600 м
[Sc]
+17.3 +12.6 74 +17 +17 тепло 1019.5 1014.5 +18.3 0.0
21 15.10 СЗ 2 30 км 8/8 1500 м
[Sc]
+16.8 +12.3 75 +17 +17 тепло 1020.4 1015.4
00 16.10 СЗ 3 50 км {ливн. осадки} 6/6 1500 м
[Sc]
+14.0 +9.6 75 +13 +13 тепло 1022.6 1017.5
03 16.10 СЗ 2 50 км 3/3 600 м
[Sc]
+11.5 +8.0 79 +10 +10 по сезону 1024.4 1019.3
06 16.10 СЗ 2 28 км 10/0
[Ci fib]
+12.3 +8.6 78 +11 +12 по сезону 1026.0 1020.9 +10.9 0.3
09 16.10 СЗ 2 35 км 8/0
[Ci fib]
+16.3 +8.0 58 +16 +21 тепло 1027.0 1021.9
12 16.10 СЗ 1 25 км 3/0
[Ci fib]
+18.5 +7.0 47 +20 +25 тепло 1025.8 1020.8
15 16.10 З 1 45 км ясно +15.9 +6.3 53 +17 +17 тепло 1025.8 1020.7
18 16.10 З 2 23 км ясно +12.9 +7.8 71 +12 +12 по сезону 1025.7 1020.6 +18.9
21 16.10 З 3 40 км 4/0
[Ac trans]
+12.8 +7.5 70 +12 +12 тепло 1024.9 1019.8
00 17.10 З 2 40 км ясно +12.0 +8.1 77 +11 +11 тепло 1024.1 1019.0
03 17.10 З 2 29 км ясно +11.6 +8.8 83 +10 +10 по сезону 1023.2 1018.1
06 17.10 З 3 10 км ясно +14.8 +9.8 72 +14 +15 тепло 1023.5 1018.4 +11.3
09 17.10 СЗ 2 14 км ясно +21.4 +12.3 56 +24 +29 комфорт 1023.6 1018.6
12 17.10 СЗ 2 25 км ясно +23.3 +12.6 51 +26 +30 жарко 1022.3 1017.4
15 17.10 СЗ 1 19 км 6/4 600 м
[Sc diur, vesp Ci fib]
+19.4 +11.9 62 +22 +22 комфорт 1022.5 1017.5
18 17.10 СЗ 3 15 км ясно +17.6 +11.9 69 +18 +18 тепло 1023.2 1018.2 +24.3
21 17.10 СВ 2 10 км ясно +14.6 +12.1 85 +14 +14 тепло 1024.3 1019.2
00 18.10 В 2 6000 м дымка ясно +14.5 +12.0 85 +14 +14 тепло 1024.6 1019.5
03 18.10 штиль 0 3400 м дымка ясно +11.5 +10.7 95 +11 +11 тепло 1023.9 1018.8
06 18.10 СВ 1 5000 м дымка ясно +12.6 +11.8 95 +13 +14 тепло 1023.9 1018.8 +10.8
09 18.10 ЮВ 3 6000 м дымка 10/10 150 м
[St]
+15.6 +13.4 87 +15 +15 тепло 1024.0 1018.9
12 18.10 Ю 3 5000 м дымка 10/10 180 м
[St]
+15.3 +13.1 87 +15 +15 тепло 1022.3 1017.2
15 18.10 Ю 2 3600 м дымка 10/10 120 м
[St]
+15.3 +14.1 93 +15 +15 тепло 1020.9 1015.9
18 18.10 ЮЗ 2 2900 м дымка 10/10 90 м
[St]
+14.7 +13.7 94 +14 +14 тепло 1020.7 1015.6 +15.9
21 18.10 ЮЗ 2 2300 м дымка 10/10 60 м
[St]
+14.0 +13.4 96 +13 +13 тепло 1020.3 1015.2
00 19.10 ЮЗ 1 1400 м дымка 3/3 150 м
[St]
+12.6 +12.0 96 +13 +13 тепло 1019.6 1014.5
03 19.10 ЮЗ 1 600 м туман ?/? +13.1 +13.1 100 +13 +13 тепло 1019.0 1013.9
06 19.10 ЮЗ 2 4800 м дымка {туман} 9/9 60 м
[St]
+13.5 +13.0 97 +13 +13 тепло 1019.2 1014.1 +12.2
09 19.10 Ю 3 30 км 8/0
[Ac trans Ci fib]
+17.9 +14.0 78 +18 +21 тепло 1018.8 1013.8
12 19.10 Ю 2 30 км 9/0
[Ci fib]
+18.6 +13.7 73 +20 +23 тепло 1017.9 1012.9
15 19.10 ЮЗ 3 30 км 9/0
[Ci fib]
+16.2 +12.4 78 +16 +16 тепло 1017.4 1012.4
18 19.10 ЮЗ 2 9000 м дымка 3/3 120 м
[St]
+15.4 +14.0 91 +15 +15 тепло 1017.4 1012.4 +18.8
21 19.10 ЮЗ 2 5000 м дымка 8/8 120 м
[St]
+14.6 +13.5 93 +14 +14 тепло 1017.5 1012.5
00 20.10 ЮЗ 2 6000 м дымка 10/10 210 м
[St]
+14.2 +12.7 91 +14 +14 тепло 1017.5 1012.4
03 20.10 ЮЗ 2 7000 м дымка 10/10 210 м
[St]
+14.6 +12.8 89 +14 +14 тепло 1017.1 1012.1
06 20.10 ЮЗ 2 7000 м 10/10 240 м
[Sc]
+15.1 +13.0 87 +15 +15 тепло 1017.7 1012.7 +14.2
09 20.10 Ю 3 11 км 10/10 400 м
[Sc]
+16.0 +13.3 84 +16 +16 тепло 1018.3 1013.3
12 20.10 Ю 4 10 км 9/9 360 м
[Sc]
+15.9 +13.4 85 +15 +15 тепло 1018.1 1013.1
15 20.10 Ю 1 8000 м дымка 9/8 630 м
[Sc Ci]
+15.2 +13.2 88 +16 +16 тепло 1018.1 1013.1
18 20.10 Ю 2 9000 м дымка 10/10 630 м
[Sc]
+15.3 +12.8 85 +15 +15 тепло 1018.8 1013.8 +16.2
21 20.10 В 3 10 км 10/10 540 м
[Sc]
+15.0 +12.1 83 +14 +14 тепло 1019.2 1014.2
00 21.10 В 1 10 км 10/10 540 м
[Sc]
+14.9 +11.7 81 +15 +15 тепло 1018.6 1013.6
03 21.10 СВ 4 4800 м дымка 10/10 750 м
[Sc]
+14.3 +12.3 88 +13 +13 тепло 1018.6 1013.5
06 21.10 В 4 5000 м дымка 10/10 180 м
[Sc]
+13.4 +12.0 91 +12 +12 тепло 1018.5 1013.4 +13.4
09 21.10 В 2 7000 м дымка 10/10 240 м
[Sc]
+14.3 +12.2 87 +14 +14 тепло 1018.7 1013.6
12 21.10 ЮВ 2 8000 м дымка 10/10 420 м
[Sc]
+14.4 +11.0 80 +14 +14 тепло 1016.7 1011.7
15 21.10 ЮВ 2 9000 м дымка 8/6 600 м
[Sc Ac trans]
+14.0 +11.0 82 +13 +13 тепло 1015.4 1010.4
18 21.10 Ю 4 11 км 10/8 1110 м
[Sc Ac und]
+14.4 +11.2 81 +13 +13 тепло 1014.6 1009.6 +14.7
21 21.10 ЮЗ 1 8000 м дымка 10/10 450 м
[Sc]
+14.9 +12.4 85 +15 +15 тепло 1012.7 1007.7
00 22.10 З 2 2800 м ливневой дождь 10/10 600 м
[Cb calv]
+14.0 +12.7 92 +13 +13 тепло 1011.2 1006.2

 

Местоположение метеостанции Одесса (Одесская область, Украина): широта 46.43 долгота 30.77 высота над уровнем моря 42 м.

В архиве по умолчанию представлена погода в Одессе за последнюю неделю. Архивные данные за месяц целиком и за предыдущие месяцы, начиная с января 2011 года, Вы можете получить, выбрав интересующий диапазон дат из раскрывающегося списка и нажав кнопку "Ввод!".

Внимание! Время в таблицах - всемирное. Для получения местного времени необходимо прибавить поправку, которая в Одессе равна 2 ч.

Смотрите также архив погоды в соседних городах и на ближайших метеорологических станциях:

Погода в Ильичёвске (Одесская область, Украина) (6 км)
Погода в Белгород-Днестровском (Одесская область, Украина) (41 км)
Погода в Очакове (Николаевская область, Украина) (64 км)
Погода в Сербке (Одесская область, Украина) (66 км)
Погода в Раздельной (Одесская область, Украина) (70 км)
Погода в Заставе (Одесская область, Украина) (72 км)
Погода в Сарате (Одесская область, Украина) (96 км)
Погода в Штефан Водэ (Молдова) (99 км)
Погода в Тирасполе (Молдова) (103 км)
Погода в Николаеве (Николаевская область, Украина) (112 км)

Пояснения к столбцам:

Ветер - указаны скорость ветра в м/с - средняя за 10 мин, порывы в срок и между сроками (в фигурных скобках) и направление, откуда дует ветер: С - северный, СВ - северо-восточный, В - восточный, ЮВ - юго-восточный, Ю - южный, ЮЗ - юго-западный, З - западный, СЗ - северо-западный.
Видимость - горизонтальная дальность видимости в метрах или километрах. При видимости от 1 до 10 км при отсутствии осадков обычно наблюдается дымка, при ухудшении видимости до 1 км и менее - туман. В сухую погоду видимость может ухудшаться дымом, пылью или мглою.
Явления - указаны атмосферные явления, наблюдавшиеся в срок или в последний час перед сроком; фигурными скобками обозначены явления, наблюдавшиеся между сроками (за 1-3 часа до срока); квадратными скобками обозначены град или гололедные отложения с указанием их диаметра в мм.
Облачность - указаны через наклонную черту общая и нижняя облачность в баллах и высота нижней границы облаков в метрах; квадратными скобками обозначены формы облаков: Ci - перистые, Cs - перисто-слоистые, Cc - перисто-кучевые, Ac - высококучевые, As - высокослоистые, Sc - слоисто-кучевые, Ns - слоисто-дождевые, Cu - кучевые, Cb - кучево-дождевые. Подробнее классификацию облаков см. в Атласе облаков (PDF).
T - Температура воздуха - температура, измеренная на высоте 2 м над землей.
Td - Температура точки росы - температура, при понижении до которой содержащийся в воздухе водяной пар достигнет насыщения.
f - Относительная влажность воздуха - влажноcть воздуха, измеренная на высоте 2 м над землей.
Te - Эффективная температура - температура, которую ощущает одетый по сезону человек в тени. Характеристика душности погоды. При расчете учитывается влияние влажности воздуха и скорости ветра на теплоощущения человека.
Tes - Эффективная температура на солнце - температура, которую ощущает человек, с поправкой на солнечный нагрев. Характеристика знойности погоды. Зависит от высоты солнца над горизонтом, облачности и скорости ветра. Ночью, в пасмурную погоду, а также при ветре 12 м/с и более поправка равна нулю.
P - Атмосферное давление - приведенное к уровню моря атмосферное давление.
Po - Атмосферное давление - измеренное на уровне метеостанции атмосферное давление.
Tmin - Минимальная температура - минимум температуры воздуха на высоте 2 м над землей.
Tmax - Максимальная температура - максимум температуры воздуха на высоте 2 м над землей.
R - Количество осадков - Количество выпавших осадков за период времени, мм. При наведении курсора мыши на число - период времени, за который выпало указанное количество осадков.
R24 - Количество осадков - Количество выпавших осадков за 24 часа, мм.
S - Снежный покров - Высота снежного покрова, см. При наведении курсора мыши на число - состояние снежного покрова и степень покрытия местности в баллах.